When you browse on this site, cookies collect data to enhance your experience and personalize the content and advertising you see.
Visit our Privacy Policy to learn more. By continuing to use the site, you agree to this use of cookies and data.
  • In Latvia
  • List of Countries
  • For 7 days
  • Water Temperature
  • Weather Map
  • Weather Widgets
  • user-avatar
    Login

    Hourly Weather Eisenstadt

    Today, 17 August, Saturday

    Time Temperature Precipitation Wind Pressure Humidity
    00:00 +15°C° 0 mm 1 mps 724 mmHg 67%
    01:00 +14°C° 0 mm 1 mps 723 mmHg 69%
    02:00 +14°C° 0 mm 1 mps 723 mmHg 71%
    03:00 +14°C° 0 mm 1 mps 723 mmHg 74%
    04:00 +13°C° 0 mm 1 mps 723 mmHg 77%
    05:00 +15°C° 0 mm 1 mps 723 mmHg 74%
    06:00 +16°C° 0 mm 1 mps 723 mmHg 71%
    07:00 +18°C° 0 mm 1 mps 724 mmHg 67%
    08:00 +20°C° 0 mm 1 mps 724 mmHg 62%
    09:00 +21°C° 0 mm 2 mps 724 mmHg 57%
    10:00 +22°C° 0 mm 3 mps 724 mmHg 51%
    11:00 +25°C° 0 mm 3 mps 724 mmHg 48%
    12:00 +26°C° 0 mm 3 mps 724 mmHg 44%
    13:00 +27°C° 0 mm 3 mps 724 mmHg 41%
    14:00 +27°C° 0 mm 3 mps 723 mmHg 41%
    15:00 +27°C° 0 mm 3 mps 723 mmHg 42%
    16:00 +27°C° 0 mm 3 mps 722 mmHg 42%
    17:00 +25°C° 0 mm 3 mps 722 mmHg 51%
    18:00 +24°C° 0 mm 2 mps 722 mmHg 59%
    19:00 +21°C° 0 mm 2 mps 722 mmHg 67%
    20:00 +20°C° 0 mm 2 mps 722 mmHg 67%
    21:00 +20°C° 0 mm 2 mps 722 mmHg 67%
    22:00 +20°C° 0 mm 2 mps 722 mmHg 67%
    23:00 +20°C° 0 mm 2 mps 722 mmHg 67%

    Tomorrow, 18 August, Sunday

    Time Temperature Precipitation Wind Pressure Humidity
    00:00 +20°C° 0 mm 2 mps 722 mmHg 66%
    01:00 +21°C° 0 mm 1 mps 722 mmHg 65%
    02:00 +21°C° 0 mm 1 mps 722 mmHg 65%
    03:00 +21°C° 0 mm 1 mps 722 mmHg 64%
    04:00 +21°C° 0 mm 1 mps 722 mmHg 63%
    05:00 +21°C° 0 mm 1 mps 722 mmHg 64%
    06:00 +21°C° 0 mm 1 mps 722 mmHg 65%
    07:00 +21°C° 0 mm 1 mps 722 mmHg 66%
    08:00 +23°C° 0 mm 1 mps 722 mmHg 58%
    09:00 +26°C° 0 mm 2 mps 722 mmHg 50%
    10:00 +28°C° 0 mm 3 mps 723 mmHg 42%
    11:00 +29°C° 0 mm 4 mps 722 mmHg 40%
    12:00 +30°C° 0 mm 5 mps 722 mmHg 38%
    13:00 +32°C° 0 mm 5 mps 722 mmHg 35%
    14:00 +32°C° 0 mm 5 mps 722 mmHg 37%
    15:00 +30°C° 0 mm 5 mps 722 mmHg 39%
    16:00 +30°C° 0 mm 5 mps 722 mmHg 42%
    17:00 +28°C° 0 mm 4 mps 721 mmHg 49%
    18:00 +26°C° 0 mm 3 mps 721 mmHg 57%
    19:00 +24°C° 0 mm 3 mps 721 mmHg 65%
    20:00 +23°C° 0 mm 2 mps 721 mmHg 68%
    21:00 +21°C° 0 mm 2 mps 721 mmHg 71%
    22:00 +20°C° 0 mm 2 mps 721 mmHg 73%
    23:00 +20°C° 0 mm 2 mps 721 mmHg 74%

    Day after tomorrow, 19 August, Monday

    Time Temperature Precipitation Wind Pressure Humidity
    00:00 +20°C° 0 mm 2 mps 721 mmHg 75%
    01:00 +19°C° 0 mm 2 mps 721 mmHg 76%
    02:00 +19°C° 0 mm 2 mps 721 mmHg 77%
    03:00 +18°C° 0 mm 2 mps 721 mmHg 78%
    04:00 +18°C° 0 mm 2 mps 722 mmHg 79%
    05:00 +19°C° 0 mm 2 mps 722 mmHg 75%
    06:00 +20°C° 0 mm 2 mps 723 mmHg 71%
    07:00 +21°C° 0 mm 2 mps 723 mmHg 67%
    08:00 +24°C° 0 mm 3 mps 724 mmHg 63%
    09:00 +25°C° 0 mm 3 mps 724 mmHg 58%
    10:00 +27°C° 0 mm 4 mps 724 mmHg 54%
    11:00 +27°C° 0 mm 4 mps 725 mmHg 52%
    12:00 +28°C° 0 mm 4 mps 725 mmHg 50%
    13:00 +28°C° 0 mm 4 mps 725 mmHg 48%
    14:00 +28°C° 0 mm 4 mps 725 mmHg 49%
    15:00 +27°C° 0 mm 4 mps 725 mmHg 51%
    16:00 +27°C° 0 mm 4 mps 725 mmHg 52%
    17:00 +26°C° 0 mm 3 mps 724 mmHg 56%
    18:00 +24°C° 0 mm 2 mps 724 mmHg 60%
    19:00 +22°C° 0 mm 1 mps 724 mmHg 64%
    20:00 +22°C° 0 mm 1 mps 725 mmHg 66%
    21:00 +21°C° 0 mm 1 mps 725 mmHg 68%
    22:00 +20°C° 0 mm 1 mps 725 mmHg 69%
    23:00 +20°C° 0 mm 1 mps 725 mmHg 72%

    20 August, Tuesday

    Time Temperature Precipitation Wind Pressure Humidity
    00:00 +19°C° 0 mm 1 mps 725 mmHg 74%
    01:00 +19°C° 0 mm 1 mps 725 mmHg 77%
    02:00 +19°C° 0 mm 1 mps 725 mmHg 77%
    03:00 +19°C° 0 mm 1 mps 725 mmHg 78%
    04:00 +18°C° 0 mm 1 mps 725 mmHg 79%
    05:00 +20°C° 0 mm 1 mps 725 mmHg 76%
    06:00 +21°C° 0 mm 1 mps 725 mmHg 72%
    07:00 +22°C° 0 mm 1 mps 725 mmHg 69%
    08:00 +24°C° 0 mm 1 mps 725 mmHg 63%
    09:00 +26°C° 0 mm 1 mps 726 mmHg 56%
    10:00 +27°C° 0 mm 1 mps 726 mmHg 49%
    11:00 +28°C° 0 mm 2 mps 725 mmHg 47%
    12:00 +29°C° 0 mm 2 mps 725 mmHg 46%
    13:00 +30°C° 0 mm 3 mps 724 mmHg 44%
    14:00 +30°C° 0 mm 3 mps 724 mmHg 43%
    15:00 +32°C° 0 mm 4 mps 723 mmHg 43%
    16:00 +32°C° 0 mm 5 mps 723 mmHg 43%
    17:00 +29°C° 0 mm 4 mps 722 mmHg 51%
    18:00 +27°C° 0 mm 4 mps 722 mmHg 58%
    19:00 +25°C° 0 mm 3 mps 722 mmHg 66%
    20:00 +23°C° 0 mm 4 mps 723 mmHg 69%
    21:00 +22°C° 0 mm 5 mps 724 mmHg 71%
    22:00 +21°C° 0 mm 5 mps 724 mmHg 73%
    23:00 +20°C° 0 mm 6 mps 725 mmHg 72%

    21 August, Wednesday

    Time Temperature Precipitation Wind Pressure Humidity
    00:00 +19°C° 0 mm 6 mps 725 mmHg 70%
    01:00 +17°C° 0 mm 6 mps 726 mmHg 68%
    02:00 +17°C° 0 mm 6 mps 726 mmHg 70%
    03:00 +16°C° 0 mm 5 mps 727 mmHg 72%
    04:00 +16°C° 0 mm 5 mps 727 mmHg 73%
    05:00 +17°C° 0 mm 5 mps 727 mmHg 72%
    06:00 +17°C° 0 mm 5 mps 728 mmHg 70%
    07:00 +19°C° 0 mm 5 mps 728 mmHg 68%
    08:00 +20°C° 0 mm 5 mps 729 mmHg 62%
    09:00 +21°C° 0 mm 5 mps 729 mmHg 57%
    10:00 +22°C° 0 mm 5 mps 729 mmHg 52%
    11:00 +21°C° 0 mm 5 mps 729 mmHg 52%
    12:00 +21°C° 0 mm 5 mps 729 mmHg 53%
    13:00 +21°C° 0 mm 5 mps 729 mmHg 54%
    14:00 +21°C° 0 mm 4 mps 729 mmHg 53%
    15:00 +22°C° 0 mm 4 mps 728 mmHg 51%
    16:00 +22°C° 0 mm 4 mps 728 mmHg 50%
    17:00 +21°C° 0 mm 3 mps 728 mmHg 55%
    18:00 +20°C° 0 mm 3 mps 728 mmHg 59%
    19:00 +19°C° 0 mm 3 mps 728 mmHg 64%
    20:00 +18°C° 0 mm 3 mps 729 mmHg 67%
    21:00 +18°C° 0 mm 2 mps 729 mmHg 69%
    22:00 +17°C° 0 mm 2 mps 729 mmHg 72%
    23:00 +17°C° 0 mm 2 mps 729 mmHg 74%

    22 August, Thursday

    Time Temperature Precipitation Wind Pressure Humidity
    00:00 +16°C° 0 mm 2 mps 729 mmHg 76%
    01:00 +16°C° 0 mm 3 mps 729 mmHg 78%
    02:00 +16°C° 0 mm 2 mps 729 mmHg 79%
    03:00 +15°C° 0 mm 2 mps 729 mmHg 80%
    04:00 +15°C° 0 mm 2 mps 729 mmHg 81%
    05:00 +16°C° 0 mm 2 mps 729 mmHg 78%
    06:00 +17°C° 0 mm 2 mps 729 mmHg 74%
    07:00 +17°C° 0 mm 3 mps 729 mmHg 71%
    08:00 +19°C° 0 mm 2 mps 729 mmHg 63%
    09:00 +20°C° 0 mm 2 mps 730 mmHg 56%
    10:00 +23°C° 0 mm 2 mps 730 mmHg 48%
    11:00 +24°C° 0 mm 2 mps 730 mmHg 45%
    12:00 +25°C° 0 mm 2 mps 729 mmHg 42%
    13:00 +26°C° 0 mm 2 mps 729 mmHg 39%
    14:00 +26°C° 0 mm 2 mps 729 mmHg 39%
    15:00 +26°C° 0 mm 1 mps 728 mmHg 39%
    16:00 +26°C° 0 mm 1 mps 728 mmHg 40%
    17:00 +24°C° 0 mm 1 mps 728 mmHg 45%
    18:00 +23°C° 0 mm 1 mps 728 mmHg 50%
    19:00 +21°C° 0 mm 1 mps 728 mmHg 55%
    20:00 +20°C° 0 mm 1 mps 728 mmHg 57%
    21:00 +19°C° 0 mm 1 mps 728 mmHg 58%
    22:00 +19°C° 0 mm 1 mps 728 mmHg 59%
    23:00 +19°C° 0 mm 1 mps 728 mmHg 60%
    Show more